BAW79A EGBB-LOWW

Flight info

Callsign BAW79A
Flight time N/A
Altitude 41000
Route COWLY Q70 BIG UL9 KONAN UL607 KOK DCT LNO DCT MATUG DCT GUBAX DCT BOREP DCT ENITA DCT ETVIS DCT BUDEX BUDEX2W
Aircraft B772/H-SDE2E3FGHIJ5LORVWXY/LB1D1

Departure

Time 2026-04-30 21:58
Airport Birmingham Airport (EGBB)

Arrival

Time N/A
Airport Vienna International Airport (LOWW)
Time Latitude Longitude Altitude Speed Heading
2026-04-30 21:38 52.45195 -1.73710 336 ft 0 kts 327°
2026-04-30 21:50 52.45185 -1.73700 337 ft 7 kts 326°
2026-04-30 21:50 52.45161 -1.73588 332 ft 17 kts 245°
2026-04-30 21:50 52.45167 -1.73566 332 ft 0 kts 231°
2026-04-30 21:52 52.45127 -1.73659 332 ft 4 kts 235°
2026-04-30 21:52 52.45112 -1.73762 333 ft 18 kts 287°
2026-04-30 21:52 52.45247 -1.73938 332 ft 33 kts 325°
2026-04-30 21:53 52.45355 -1.74182 330 ft 27 kts 297°
2026-04-30 21:53 52.45402 -1.74334 328 ft 30 kts 296°
2026-04-30 21:53 52.45502 -1.74598 326 ft 32 kts 322°
2026-04-30 21:53 52.45764 -1.74894 324 ft 58 kts 326°
2026-04-30 21:54 52.46118 -1.75288 319 ft 36 kts 325°
2026-04-30 21:54 52.46374 -1.75572 317 ft 47 kts 326°
2026-04-30 21:54 52.46551 -1.75768 316 ft 26 kts 326°
2026-04-30 21:54 52.46596 -1.75817 316 ft 19 kts 324°
2026-04-30 21:55 52.46622 -1.75915 315 ft 0 kts 251°
2026-04-30 21:57 52.46621 -1.75918 316 ft 5 kts 251°
2026-04-30 21:57 52.46557 -1.76058 316 ft 10 kts 196°
2026-04-30 21:58 52.46406 -1.75934 317 ft 37 kts 146°
2026-04-30 21:58 52.46075 -1.75564 320 ft 105 kts 146°
2026-04-30 21:58 52.45191 -1.74568 391 ft 197 kts 147°
2026-04-30 21:58 52.44105 -1.73502 2087 ft 174 kts 149°
2026-04-30 21:59 52.43059 -1.72377 3509 ft 185 kts 148°
2026-04-30 21:59 52.41955 -1.71145 4764 ft 202 kts 149°
2026-04-30 21:59 52.40699 -1.69836 5846 ft 226 kts 160°
2026-04-30 22:00 52.37367 -1.68471 8016 ft 270 kts 160°
2026-04-30 22:00 52.33859 -1.65434 10832 ft 296 kts 148°
2026-04-30 22:00 52.32141 -1.63525 12359 ft 302 kts 148°
2026-04-30 22:01 52.30374 -1.61602 13862 ft 308 kts 149°
2026-04-30 22:01 52.28553 -1.59685 15191 ft 315 kts 149°
2026-04-30 22:01 52.26678 -1.57747 16423 ft 323 kts 149°
2026-04-30 22:01 52.24734 -1.55828 17638 ft 329 kts 153°
2026-04-30 22:02 52.22656 -1.54152 18768 ft 336 kts 155°
2026-04-30 22:02 52.20513 -1.52519 19751 ft 343 kts 155°
2026-04-30 22:02 52.18337 -1.50850 20807 ft 347 kts 155°
2026-04-30 22:02 52.16152 -1.49157 21917 ft 350 kts 155°
2026-04-30 22:03 52.13951 -1.47438 22995 ft 352 kts 155°
2026-04-30 22:03 52.11725 -1.45691 23964 ft 356 kts 155°
2026-04-30 22:03 52.09480 -1.43927 24779 ft 359 kts 155°
2026-04-30 22:03 52.07221 -1.42149 25623 ft 363 kts 155°
2026-04-30 22:04 52.04928 -1.40343 26312 ft 370 kts 155°
2026-04-30 22:04 52.02587 -1.38501 26989 ft 377 kts 155°
2026-04-30 22:04 51.97793 -1.34732 28286 ft 388 kts 155°
2026-04-30 22:05 51.95380 -1.32837 28948 ft 393 kts 155°
2026-04-30 22:05 51.92902 -1.30895 29592 ft 398 kts 155°
2026-04-30 22:05 51.90370 -1.28913 30252 ft 402 kts 155°
2026-04-30 22:05 51.87872 -1.26959 30723 ft 406 kts 155°
2026-04-30 22:06 51.85312 -1.24959 31212 ft 410 kts 155°
2026-04-30 22:06 51.80127 -1.20915 32130 ft 418 kts 155°
2026-04-30 22:06 51.77494 -1.18862 32569 ft 422 kts 155°
2026-04-30 22:07 51.74840 -1.16793 32998 ft 425 kts 155°
2026-04-30 22:07 51.72169 -1.14710 33421 ft 429 kts 155°
2026-04-30 22:07 51.69470 -1.12611 33827 ft 432 kts 155°
2026-04-30 22:07 51.66749 -1.10508 34217 ft 435 kts 155°
2026-04-30 22:08 51.64068 -1.08269 34487 ft 434 kts 147°
2026-04-30 22:08 51.61795 -1.05056 34772 ft 440 kts 133°
2026-04-30 22:08 51.60043 -1.00985 35069 ft 446 kts 118°
2026-04-30 22:08 51.58898 -0.96394 35380 ft 450 kts 113°
2026-04-30 22:09 51.57777 -0.91631 35690 ft 452 kts 114°
2026-04-30 22:09 51.56616 -0.86928 35988 ft 454 kts 115°
2026-04-30 22:09 51.55503 -0.82572 36269 ft 455 kts 115°
2026-04-30 22:09 51.54296 -0.77905 36810 ft 450 kts 115°
2026-04-30 22:10 51.53091 -0.73259 37310 ft 447 kts 115°
2026-04-30 22:10 51.51901 -0.68666 37883 ft 443 kts 115°
2026-04-30 22:10 51.50722 -0.64109 38453 ft 439 kts 115°
2026-04-30 22:10 51.49555 -0.59597 38988 ft 436 kts 115°
2026-04-30 22:11 51.47250 -0.50691 39811 ft 430 kts 115°
2026-04-30 22:11 51.46111 -0.46298 40232 ft 426 kts 115°
2026-04-30 22:11 51.44979 -0.41937 40649 ft 422 kts 115°
2026-04-30 22:12 51.43848 -0.37594 40872 ft 423 kts 115°
2026-04-30 22:12 51.42713 -0.33237 40999 ft 424 kts 115°
2026-04-30 22:12 51.41581 -0.28898 41254 ft 422 kts 115°
2026-04-30 22:13 51.39270 -0.20057 41227 ft 436 kts 115°
2026-04-30 22:13 51.36897 -0.10988 41228 ft 448 kts 115°
2026-04-30 22:14 51.34450 -0.01677 41226 ft 459 kts 115°
2026-04-30 22:14 51.32278 0.07928 41219 ft 468 kts 103°
2026-04-30 22:15 51.31168 0.18339 41226 ft 476 kts 101°
2026-04-30 22:15 51.29970 0.28743 41199 ft 481 kts 103°
2026-04-30 22:16 51.28651 0.39261 41186 ft 484 kts 103°
2026-04-30 22:17 51.26089 0.60351 41192 ft 482 kts 103°
2026-04-30 22:17 51.24018 0.75979 41204 ft 478 kts 103°
2026-04-30 22:18 51.22072 0.91514 41216 ft 474 kts 103°
2026-04-30 22:19 51.20100 1.06921 41227 ft 471 kts 103°
2026-04-30 22:20 51.18085 1.22201 41227 ft 469 kts 104°
2026-04-30 22:20 51.16113 1.37446 41225 ft 468 kts 100°
2026-04-30 22:21 51.15560 1.47682 41237 ft 466 kts 96°
2026-04-30 22:21 51.15159 1.57916 41243 ft 462 kts 96°
2026-04-30 22:22 51.14690 1.68189 41246 ft 467 kts 96°
2026-04-30 22:22 51.14173 1.78563 41243 ft 473 kts 96°
2026-04-30 22:23 51.13645 1.89051 41244 ft 477 kts 96°
2026-04-30 22:23 51.13100 1.99617 41244 ft 480 kts 96°
2026-04-30 22:24 51.12528 2.10164 41239 ft 477 kts 96°
2026-04-30 22:24 51.11948 2.20702 41249 ft 479 kts 96°
2026-04-30 22:25 51.11372 2.31282 41249 ft 479 kts 96°
2026-04-30 22:25 51.10792 2.41858 41262 ft 480 kts 96°
2026-04-30 22:26 51.09912 2.57719 41263 ft 480 kts 96°
2026-04-30 22:27 51.09188 2.68277 41271 ft 479 kts 102°
2026-04-30 22:27 51.06739 2.83662 41268 ft 479 kts 105°
2026-04-30 22:28 51.04225 2.99111 41261 ft 481 kts 105°
2026-04-30 22:29 51.01013 3.19703 41269 ft 481 kts 104°
2026-04-30 22:31 50.95297 3.55778 41271 ft 481 kts 105°
2026-04-30 22:32 50.91137 3.81526 41277 ft 482 kts 104°
2026-04-30 22:33 50.86934 4.07153 41296 ft 479 kts 104°
2026-04-30 22:35 50.82672 4.32743 41282 ft 480 kts 104°
2026-04-30 22:36 50.78411 4.57950 41284 ft 470 kts 105°
2026-04-30 22:37 50.75008 4.77831 41300 ft 468 kts 105°
2026-04-30 22:38 50.71858 4.96047 41308 ft 472 kts 105°
2026-04-30 22:39 50.69231 5.11097 41314 ft 476 kts 105°
2026-04-30 22:40 50.63889 5.41343 41322 ft 478 kts 105°
2026-04-30 22:41 50.59392 5.66515 41317 ft 477 kts 105°
2026-04-30 22:43 50.52278 5.95722 41303 ft 477 kts 111°
2026-04-30 22:44 50.47344 6.14984 41302 ft 476 kts 110°
2026-04-30 22:45 50.40828 6.44254 41321 ft 471 kts 94°
2026-04-30 22:47 50.38709 6.74981 41335 ft 474 kts 96°
2026-04-30 22:48 50.37058 6.95508 41351 ft 475 kts 96°
2026-04-30 22:49 50.34539 7.26256 41353 ft 474 kts 96°
2026-04-30 22:51 50.31956 7.56835 41355 ft 474 kts 96°
2026-04-30 22:52 50.30633 7.72189 41362 ft 475 kts 96°
2026-04-30 22:53 50.28840 7.92656 41357 ft 475 kts 96°
2026-04-30 22:53 50.27175 8.07975 41365 ft 477 kts 98°
2026-04-30 22:55 50.24315 8.33484 41371 ft 477 kts 98°
2026-04-30 22:56 50.22039 8.53916 41383 ft 477 kts 98°
2026-04-30 22:57 50.19139 8.79433 41373 ft 477 kts 98°
2026-04-30 22:58 50.16785 8.99772 41374 ft 478 kts 98°
2026-04-30 22:59 50.13173 9.30364 41377 ft 479 kts 98°